SCP
0 0 0 0 0 0 0 0 0 0 0 0 0 0 0 0 0 0 0 0 0 0 0 0 0 0 0 0 0 0 0 0 0 0 0 0 0 0
0 0 0 0 0 0 0 0 0 0 0 0 0 0 0 0 0 0 0 0 0 0 0 0 0 0 0 0 0 0 0 0 0 0 0 0 0 0
0 0 0 0 0 0 0 0 0 0 0 0 0 0 0 0 0 0 0 0 0 0 0 0 0 0 0 0 0 0 0 0 0 0 0 0 0 0
0 0 0 0 0 0 0 0 0 0 0 0 0 0 0 0 0 0 0 0 0 0 0 0 0 0 0 0 0 0 0 0 0 0 0 0 0 0
0 0 0 0 0 0 0 0 0 0 0 0 0 0 0 0 0 0 0 0 0 0 0 0 0 0 0 0 0 0 0 0 0 0 0 0 0 0
0 0 0 0 0 0 0 0 0 0 0 0 0 0 0 0 0 0 0 0 0 0 0 0 0 0 0 0 0 0 0 0 0 0 0 0 0 0
0 0 0 0 0 0 0 0 0 0 0 0 0 0 0 0 0 0 0 0 0 0 0 0 0 0 0 0 0 0 0 0 0 0 0 0 0 0
0 0 0 0 0 0 0 0 0 0 0 0 0 0 0 0 0 0 0 0 0 0 0 0 0 0 0 0 0 0 0 0 0 0 0 0 0 0
0 0 0 0 0 0 0 0 0 0 0 0 0 0 0 0 0 0 0 0 0 0 0 0 0 0 0 0 0 0 0 0 0 0 0 0 0 0
0 0 0 0 0 0 0 0 0 0 0 0 0 0 0 0 0 0 0 0 0 0 0 0 0 0 0 0 0 0 0 0 0 0 0 0 0 0
0 0 0 0 0 0 0 0 0 0 0 0 0 0 0 0 0 0 0 0 0 0 0 0 0 0 0 0 0 0 0 0 0 0 0 0 0 0
0 0 0 0 0 0 0 0 0 0 0 0 0 0 0 0 0 0 0 0 0 0 0 0 0 0 0 0 0 0 0 0 0 0 0 0 0 0
0 0 0 0 0 0 0 0 0 0 0 0 0 0 0 0 0 0 0 0 0 0 0 0 0 0 0 0 0 0 0 0 0 0 0 0 0 0
0 0 0 0 0 0 0 0 0 0 0 0 0 0 0 0 0 0 0 0 0 0 0 0 0 0 0 0 0 0 0 0 0 0 0 0 0 0
0 0 0 0 0 0 0 0 0 0 0 0 0 0 0 0 0 0 0 0 0 0 0 0 0 0 0 0 0 0 0 0 0 0 0 0 0 0
0 0 0 0 0 0 0 0 0 0 0 0 0 0 0 0 0 0 0 0 0 0 0 0 0 0 0 0 0 0 0 0 0 0 0 0 0 0
0 0 0 0 0 0 0 0 0 0 0 0 0 0 0 0 0 0 0 0 0 0 0 0 0 0 0 0 0 0 0 0 0 0 0 0 0 0
0 0 0 0 0 0 0 0 0 0 0 0 0 0 0 0 0 0 0 0 0 0 0 0 0 0 0 0 0 0 0 0 0 0 0 0 0 0
0 0 0 0 0 0 0 0 0 0 0 0 0 0 0 0 0 0 0 0 0 0 0 0 0 0 0 0 0 0 0 0 0 0 0 0 0 0
0 0 0 0 0 0 0 0 0 0 0 0 0 0 0 0 0 0 0 0 0 0 0 0 0 0 0 0 0 0 0 0 0 0 0 0 0 0
0 0 0 0 0 0 0 0 0 0 0 0 0 0 0 0 0 0 0 0 0 0 0 0 0 0 0 0 0 0 0 0 0 0 0 0 0 0
0 0 0 0 0 0 0 0 0 0 0 0 0 0 0 0 0 0 0 0 0 0 0 0 0 0 0 0 0 0 0 0 0 0 0 0 0 0
0 0 0 0 0 0 0 0 0 0 0 0 0 0 0 0 0 0 0 0 0 0 0 0 0 0 0 0 0 0 0 0 0 0 0 0 0 0
Wind_Speed
9 9 9 9 8 9 10 10 12 17 17 9 5 6 7 8 16 13 12 23 30 31 30 29 28 27 26 25 23 21 20 18 16 15 16 17 18 18
8 9 10 9 8 9 10 11 11 14 17 8 8 9 10 12 19 14 12 28 29 30 29 28 27 27 26 25 24 22 20 19 18 17 18 19 19 19
9 10 12 11 10 10 10 11 11 12 16 14 10 10 11 13 13 11 12 12 14 26 28 28 28 27 26 25 24 23 22 20 20 19 19 20 20 19
11 11 13 11 12 11 10 12 12 12 14 18 13 11 13 13 12 12 12 12 10 22 28 28 27 26 25 25 24 23 22 21 21 21 21 21 21 20
11 12 13 12 13 11 12 12 11 12 12 14 15 12 11 10 11 12 12 10 12 16 22 24 25 25 25 25 24 24 23 22 22 22 21 21 21 20
12 13 13 13 14 14 13 14 13 13 13 14 14 13 11 10 9 10 10 8 10 11 16 18 22 23 23 23 24 24 24 23 23 23 22 22 21 20
13 13 13 16 19 17 14 11 11 11 11 12 13 12 11 9 9 8 11 10 9 9 10 10 9 8 10 16 21 23 24 24 24 24 23 22 21 19
12 10 11 14 18 23 26 25 22 15 13 12 11 12 12 11 9 10 10 11 11 5 7 9 7 9 9 8 18 24 25 25 25 24 24 23 21 19
8 8 9 10 16 9 18 25 23 26 25 17 14 14 14 11 12 13 12 12 12 7 8 12 9 10 9 12 22 24 25 26 26 25 24 22 20 19
8 9 10 10 11 14 14 14 12 12 16 12 12 14 13 13 13 13 13 12 11 9 9 11 8 9 10 10 20 24 25 25 25 25 24 22 19 17
8 9 10 9 18 24 17 12 9 10 16 20 20 19 23 23 18 9 8 8 10 8 5 7 6 8 9 10 13 21 23 24 25 25 23 21 18 16
7 8 14 15 20 23 13 9 10 12 10 9 12 15 13 14 19 10 6 8 8 6 4 4 4 4 6 4 5 6 10 18 23 24 23 21 18 10
7 5 6 17 20 22 18 8 15 16 7 7 8 8 7 7 7 7 7 7 8 8 5 3 3 3 5 6 5 4 5 6 8 13 18 21 19 13
6 5 7 17 19 20 15 16 22 17 7 8 9 9 8 7 7 7 8 9 10 11 8 7 6 5 5 6 6 6 5 4 6 7 7 13 16 17
5 11 14 16 16 11 15 19 15 8 8 9 9 9 8 7 8 7 7 8 9 11 11 13 11 9 8 8 7 6 6 4 3 4 6 8 8 8
5 8 12 13 11 11 11 10 7 8 9 8 9 9 8 7 7 6 7 6 6 6 8 11 12 12 11 11 10 9 7 6 4 3 4 6 7 8
4 2 2 3 4 5 6 6 6 7 8 8 8 9 9 9 8 7 6 5 5 5 5 4 8 10 12 9 9 10 9 8 7 6 4 6 7 8
4 1 2 3 5 6 7 8 7 8 8 8 8 8 9 9 9 7 7 6 6 6 5 4 4 4 6 10 16 12 9 8 7 6 5 5 7 7
2 2 3 4 5 5 6 7 8 8 8 8 8 8 8 8 8 8 7 6 6 6 6 5 4 5 6 6 8 19 11 7 6 5 5 5 6 6
3 3 3 3 4 5 6 7 7 8 7 7 7 8 8 8 8 8 8 8 8 7 6 5 5 7 7 5 3 5 18 11 7 6 4 4 4 4
4 3 3 3 4 5 5 6 7 8 8 7 7 8 7 8 8 8 8 12 10 7 7 7 6 10 7 5 6 5 7 16 13 6 5 4 4 5
4 4 3 3 4 4 5 6 6 7 7 6 7 7 7 7 8 10 9 9 8 8 9 8 8 6 6 7 8 7 5 6 12 16 12 7 5 8
4 4 3 3 3 4 4 6 7 7 6 6 6 7 7 8 7 8 9 9 9 9 9 8 6 4 5 7 7 6 6 6 5 6 8 13 15 10
Wind_Direction
244 246 247 254 251 251 253 254 268 286 290 285 275 252 263 271 280 285 281 291 296 300 303 302 301 299 298 297 296 293 293 297 301 302 300 300 300 298
244 247 250 253 254 255 254 254 253 263 278 280 276 274 274 280 284 286 285 291 297 299 296 295 295 295 294 293 292 290 288 289 293 294 293 295 297 300
250 250 254 255 258 259 258 257 256 256 270 279 276 276 272 274 279 276 275 276 281 288 291 292 292 290 288 287 287 287 284 284 286 287 288 289 291 296
253 254 258 260 259 261 261 260 260 258 264 276 278 275 271 271 271 270 277 277 276 285 288 288 287 286 284 281 281 281 281 280 280 279 280 282 284 290
252 254 258 259 263 262 261 262 262 261 259 267 274 274 272 269 270 272 270 270 275 281 286 288 287 285 282 279 277 276 276 274 273 272 272 275 278 282
251 253 255 255 260 263 262 259 259 260 259 262 268 272 272 267 264 273 279 271 274 280 282 282 281 282 281 279 275 272 271 270 269 267 265 265 268 272
253 251 253 258 262 270 274 268 258 259 263 263 268 274 275 274 273 275 280 282 273 268 271 272 274 273 277 279 277 271 268 264 264 262 259 258 260 263
255 255 256 268 277 283 287 290 288 282 279 274 277 278 278 274 274 274 276 279 281 250 255 268 266 269 266 258 262 262 260 258 257 256 253 252 254 257
252 260 267 267 284 280 284 288 288 285 284 283 282 279 279 276 273 270 264 263 266 260 267 274 268 268 266 263 264 257 252 250 249 250 248 246 247 250
249 254 261 266 272 279 274 275 268 267 273 278 271 273 274 273 264 264 265 265 264 259 253 268 268 266 269 262 262 255 248 244 241 242 242 241 241 243
253 256 261 262 279 291 294 292 283 278 290 292 293 296 298 300 298 289 277 274 276 272 245 256 270 278 271 260 254 250 243 239 237 236 236 235 235 236
261 258 274 282 291 299 302 298 295 293 290 285 290 294 294 291 294 290 278 273 274 277 242 241 262 281 286 267 253 248 241 236 232 230 230 229 227 224
268 264 266 292 299 305 312 305 296 307 312 297 293 289 284 276 271 261 246 245 251 250 250 263 270 275 287 305 304 278 248 233 225 224 225 223 220 212
262 266 275 295 306 314 316 306 311 323 316 303 300 300 299 294 284 270 257 245 239 244 243 234 244 250 276 291 288 302 294 249 220 211 204 212 217 214
258 278 293 306 316 317 308 312 323 318 303 301 303 304 298 289 288 282 269 257 249 242 241 235 236 239 240 250 271 292 307 294 258 218 201 199 197 195
277 285 300 311 312 306 310 315 310 300 306 303 303 301 301 299 297 292 288 283 273 261 239 230 228 226 233 238 248 262 265 281 292 264 225 206 195 193
244 234 278 302 305 307 306 305 307 310 311 306 305 308 310 310 308 304 289 284 271 275 276 244 226 222 226 229 238 245 252 255 258 262 236 209 200 196
247 229 278 291 298 305 310 312 313 313 312 311 310 311 311 311 309 307 300 291 285 281 274 264 241 217 215 233 228 241 245 250 253 246 238 213 203 197
222 230 258 277 290 298 302 305 308 309 308 307 309 310 311 311 311 310 309 302 292 284 276 261 239 224 224 235 229 210 220 231 236 234 223 215 204 199
195 225 247 265 282 293 300 305 307 309 309 309 309 310 311 313 312 312 310 306 301 296 290 267 239 229 229 242 267 225 208 217 221 222 215 212 210 201
210 224 237 257 276 289 297 302 304 306 308 309 309 312 314 314 312 312 310 310 310 299 294 284 261 257 253 249 252 243 218 213 217 214 195 185 183 184
208 220 234 249 269 283 293 300 304 305 309 308 309 312 314 313 313 313 313 311 306 299 292 286 276 257 221 222 234 239 231 212 219 232 239 227 184 183
203 212 227 248 264 278 288 296 301 304 306 309 312 313 315 317 315 312 312 311 309 308 306 302 296 259 232 228 236 240 231 215 201 202 224 232 235 236